Total_Precipitation_Accumulation
1.28 1.30 1.90 2.96 3.30 2.66 2.25 1.69 1.05 1.07 0.89 0.58 0.48 0.52 0.85 1.37 1.57 1.75 1.73 1.36 0.81 0.62 0.71 1.19 1.64 1.53 1.41 1.34 1.33 1.42 1.47 1.44 1.24 1.19 1.14 1.02 0.87 0.78 0.72 0.65 0.60 0.58 0.60 0.54 0.52 0.54 0.63 0.67 0.71
1.15 1.80 2.63 3.50 3.02 2.36 2.23 1.65 1.22 0.93 0.60 0.41 0.38 0.43 0.66 0.73 0.64 0.99 1.81 1.64 0.80 0.65 0.71 0.93 1.49 1.57 1.48 1.39 1.36 1.37 1.36 1.32 1.17 1.11 1.03 0.94 0.87 0.80 0.78 0.68 0.62 0.53 0.49 0.50 0.51 0.50 0.55 0.59 0.62
1.48 2.33 3.19 3.19 2.35 2.14 2.12 1.51 1.06 0.58 0.39 0.40 0.45 0.44 0.58 0.75 0.80 1.24 1.66 1.16 0.75 0.71 0.78 1.04 1.54 1.54 1.48 1.46 1.47 1.50 1.39 1.32 1.19 1.01 0.97 0.92 0.89 0.82 0.78 0.71 0.60 0.52 0.52 0.50 0.50 0.49 0.53 0.61 0.61
1.77 2.55 2.76 2.39 1.98 1.60 1.31 1.14 0.76 0.64 0.50 0.32 0.39 0.51 0.43 0.69 0.92 1.17 1.02 0.70 0.66 0.74 0.79 1.04 1.42 1.47 1.46 1.47 1.49 1.46 1.31 1.22 1.12 0.97 0.95 0.97 0.95 0.87 0.82 0.73 0.65 0.58 0.58 0.54 0.54 0.53 0.57 0.61 0.61
2.08 2.53 2.38 1.94 1.84 1.42 1.02 0.85 0.69 0.81 0.72 0.44 0.37 0.54 0.60 0.81 0.92 1.00 0.90 0.70 0.70 0.76 0.75 0.97 1.35 1.41 1.45 1.36 1.20 1.23 1.22 1.13 1.01 0.93 0.89 0.90 0.89 0.86 0.80 0.82 0.76 0.68 0.67 0.62 0.62 0.60 0.56 0.57 0.62
2.23 2.20 2.06 1.88 1.92 1.62 1.32 0.95 0.78 0.86 0.68 0.44 0.40 0.61 0.72 0.94 1.08 1.02 0.90 0.91 0.88 0.85 0.75 0.84 1.17 1.27 1.25 1.21 1.16 1.22 1.20 1.08 0.95 0.86 0.85 0.85 0.88 0.81 0.74 0.74 0.72 0.71 0.73 0.71 0.66 0.65 0.57 0.58 0.68
2.41 2.20 1.84 1.55 1.77 2.08 1.59 1.02 0.93 0.93 0.85 0.62 0.42 0.67 0.77 0.90 0.95 0.86 0.88 1.08 1.22 1.17 0.98 0.87 0.96 1.10 1.15 1.21 1.22 1.31 1.33 1.21 1.03 0.87 0.85 0.84 0.74 0.64 0.61 0.65 0.68 0.69 0.69 0.71 0.69 0.68 0.63 0.63 0.74
2.03 2.03 1.66 1.60 1.85 2.17 1.59 1.05 0.84 0.82 0.85 0.54 0.48 0.77 0.95 0.81 0.81 0.86 0.87 1.04 1.15 1.19 1.14 1.03 0.98 1.03 1.06 1.12 1.30 1.46 1.57 1.59 1.31 0.99 0.91 0.82 0.66 0.60 0.62 0.62 0.67 0.73 0.78 0.76 0.74 0.75 0.73 0.77 0.80
1.97 2.21 2.01 2.10 2.06 1.73 1.20 1.12 0.83 0.62 0.70 0.66 0.54 0.55 0.64 0.59 0.60 0.74 0.85 0.89 0.85 0.83 0.90 0.94 0.95 1.02 0.99 0.98 1.12 1.40 1.58 1.68 1.36 0.97 0.97 0.87 0.63 0.63 0.68 0.67 0.83 0.92 0.94 0.92 0.93 0.96 0.95 0.93 0.86
2.06 2.06 1.83 1.62 1.43 1.27 1.13 1.03 0.81 0.83 0.98 0.90 0.74 0.62 0.61 0.58 0.62 0.68 0.73 0.76 0.69 0.66 0.63 0.64 0.65 0.72 0.79 0.82 1.07 1.36 1.40 1.48 1.19 1.00 1.02 0.98 1.02 0.96 0.74 0.73 0.95 1.10 1.16 1.07 1.05 1.11 1.04 0.90 0.75
1.60 1.65 1.29 1.06 0.84 0.87 0.90 0.83 0.67 0.79 1.02 0.80 0.67 0.64 0.66 0.69 0.64 0.64 0.66 0.61 0.55 0.50 0.48 0.46 0.48 0.49 0.59 0.81 1.08 1.30 1.36 1.37 1.38 1.40 1.25 1.23 1.18 0.98 0.80 0.77 0.83 0.91 1.00 0.96 1.04 1.07 0.93 0.84 0.73
1.46 1.27 1.04 0.96 0.73 0.75 0.75 0.70 0.76 0.70 0.67 0.52 0.47 0.53 0.68 0.76 0.68 0.59 0.60 0.61 0.55 0.52 0.51 0.44 0.36 0.37 0.47 0.62 0.83 1.10 1.17 1.21 1.27 1.26 1.06 1.13 1.14 0.95 0.90 0.99 1.02 1.00 0.99 1.13 1.17 1.15 1.11 0.92 0.74
1.42 1.19 0.91 0.69 0.64 0.62 0.65 0.69 0.71 0.63 0.50 0.46 0.45 0.53 0.70 0.79 0.72 0.58 0.52 0.51 0.53 0.60 0.69 0.65 0.49 0.43 0.48 0.53 0.56 0.68 0.78 0.88 1.15 1.22 0.96 0.94 0.95 0.99 1.02 0.94 1.09 1.16 1.16 1.17 1.17 1.09 1.04 1.03 0.91
1.23 0.99 0.78 0.64 0.61 0.58 0.64 0.65 0.63 0.70 0.52 0.50 0.52 0.61 0.71 0.75 0.68 0.59 0.52 0.46 0.43 0.45 0.56 0.62 0.60 0.61 0.60 0.52 0.43 0.42 0.47 0.60 0.74 0.77 0.72 0.76 0.78 0.88 1.05 1.00 1.00 1.08 1.26 1.32 1.26 1.16 1.19 1.18 1.01
0.83 0.85 0.85 0.73 0.66 0.66 0.73 0.86 0.63 0.58 0.51 0.50 0.53 0.61 0.60 0.57 0.53 0.50 0.46 0.37 0.36 0.36 0.38 0.46 0.53 0.59 0.64 0.67 0.62 0.49 0.49 0.55 0.56 0.57 0.62 0.69 0.69 0.82 0.99 0.96 0.87 0.87 1.04 1.23 1.37 1.39 1.35 1.21 1.10
0.98 0.94 1.16 0.90 0.79 0.71 0.83 0.91 0.54 0.52 0.51 0.48 0.51 0.63 0.58 0.45 0.39 0.38 0.41 0.39 0.35 0.35 0.31 0.35 0.38 0.46 0.56 0.67 0.73 0.68 0.64 0.59 0.53 0.50 0.47 0.50 0.52 0.61 0.81 0.89 0.81 0.82 1.00 1.23 1.43 1.54 1.56 1.42 1.36
1.23 1.13 1.03 0.91 0.77 0.65 0.62 0.61 0.48 0.44 0.43 0.43 0.44 0.54 0.54 0.39 0.33 0.30 0.29 0.31 0.33 0.33 0.30 0.29 0.30 0.35 0.43 0.53 0.60 0.60 0.59 0.54 0.53 0.52 0.41 0.39 0.41 0.53 0.74 0.93 0.98 0.98 1.10 1.24 1.28 1.50 1.60 1.67 1.58
0.96 0.83 0.79 0.72 0.62 0.55 0.49 0.42 0.42 0.37 0.36 0.39 0.41 0.46 0.46 0.32 0.26 0.25 0.26 0.28 0.32 0.32 0.31 0.29 0.29 0.30 0.33 0.36 0.45 0.49 0.46 0.45 0.50 0.49 0.48 0.51 0.58 0.65 0.85 1.08 1.18 1.30 1.34 1.41 1.57 1.86 1.87 1.76 1.75
0.73 0.68 0.64 0.51 0.42 0.43 0.41 0.39 0.41 0.38 0.35 0.36 0.38 0.35 0.40 0.32 0.28 0.22 0.20 0.18 0.23 0.26 0.25 0.24 0.28 0.29 0.27 0.25 0.30 0.35 0.35 0.44 0.52 0.59 0.64 0.69 0.72 0.80 1.03 1.24 1.48 1.62 1.52 1.54 1.76 2.02 2.19 2.03 1.89
0.73 0.73 0.69 0.61 0.44 0.40 0.40 0.41 0.38 0.36 0.33 0.28 0.26 0.24 0.30 0.28 0.25 0.21 0.19 0.15 0.12 0.13 0.16 0.19 0.19 0.20 0.19 0.19 0.24 0.32 0.39 0.45 0.58 0.74 0.85 0.87 0.86 0.91 0.97 1.18 1.39 1.48 1.55 1.60 1.73 1.97 2.31 2.17 1.95
0.65 0.61 0.55 0.63 0.55 0.49 0.51 0.53 0.42 0.39 0.35 0.29 0.22 0.22 0.26 0.25 0.22 0.20 0.19 0.16 0.11 0.11 0.12 0.14 0.16 0.17 0.17 0.23 0.42 0.69 0.94 1.02 1.04 1.06 1.20 1.29 1.25 1.20 1.18 1.21 1.36 1.46 1.60 1.68 1.73 1.77 2.07 2.21 2.08
0.67 0.49 0.42 0.52 0.65 0.62 0.51 0.56 0.39 0.38 0.39 0.33 0.26 0.23 0.24 0.25 0.23 0.19 0.17 0.16 0.11 0.12 0.14 0.15 0.15 0.18 0.21 0.36 0.69 1.08 1.40 1.50 1.50 1.62 1.67 1.73 1.66 1.51 1.49 1.49 1.59 1.56 1.54 1.56 1.58 1.57 1.78 2.16 2.25
0.63 0.51 0.50 0.54 0.57 0.54 0.35 0.36 0.29 0.31 0.39 0.36 0.33 0.32 0.32 0.28 0.24 0.20 0.18 0.15 0.16 0.18 0.21 0.23 0.27 0.37 0.52 0.66 0.83 1.14 1.33 1.44 1.59 1.75 1.90 2.03 2.13 2.09 2.01 1.94 1.80 1.64 1.55 1.58 1.63 1.63 1.72 1.86 2.02
0.46 0.54 0.65 0.65 0.62 0.59 0.28 0.25 0.29 0.29 0.32 0.33 0.34 0.35 0.34 0.29 0.23 0.22 0.22 0.22 0.25 0.31 0.34 0.37 0.47 0.54 0.60 0.70 0.84 0.99 1.08 1.24 1.44 1.59 1.77 1.93 2.03 2.05 1.99 1.86 1.65 1.49 1.43 1.50 1.63 1.67 1.72 1.71 1.79
0.44 0.62 0.87 0.94 0.88 0.61 0.23 0.22 0.26 0.21 0.21 0.24 0.26 0.25 0.25 0.26 0.25 0.24 0.23 0.28 0.33 0.39 0.42 0.49 0.57 0.65 0.67 0.73 0.83 0.91 0.97 1.10 1.27 1.33 1.37 1.42 1.42 1.45 1.47 1.47 1.45 1.40 1.34 1.43 1.62 1.72 1.75 1.73 1.71
0.37 0.44 0.72 0.87 0.70 0.48 0.24 0.29 0.30 0.19 0.15 0.12 0.14 0.17 0.21 0.28 0.30 0.30 0.29 0.36 0.43 0.48 0.57 0.64 0.72 0.73 0.74 0.81 0.90 0.90 0.99 1.11 1.21 1.16 1.10 1.14 1.19 1.26 1.26 1.33 1.35 1.34 1.34 1.38 1.48 1.61 1.72 1.72 1.65
0.35 0.36 0.40 0.49 0.39 0.40 0.29 0.28 0.21 0.11 0.09 0.09 0.14 0.21 0.29 0.37 0.39 0.39 0.41 0.47 0.52 0.58 0.66 0.70 0.75 0.78 0.84 0.87 0.95 1.09 1.13 1.14 1.11 1.00 0.95 0.98 0.95 0.95 1.05 1.16 1.23 1.19 1.20 1.25 1.36 1.51 1.56 1.65 1.71
0.29 0.37 0.43 0.49 0.53 0.51 0.33 0.28 0.24 0.15 0.15 0.19 0.26 0.33 0.43 0.53 0.55 0.55 0.61 0.65 0.67 0.66 0.71 0.76 0.82 0.88 0.91 0.92 1.03 1.20 1.14 0.92 0.76 0.67 0.71 0.76 0.80 0.84 0.91 0.88 0.85 0.83 0.88 0.91 1.02 1.22 1.31 1.36 1.46
0.30 0.29 0.34 0.41 0.41 0.60 0.71 0.71 0.58 0.54 0.44 0.48 0.50 0.58 0.73 0.75 0.77 0.76 0.79 0.81 0.76 0.76 0.80 0.81 0.85 0.95 0.99 0.94 1.03 1.06 0.85 0.61 0.50 0.48 0.46 0.45 0.47 0.53 0.61 0.57 0.54 0.59 0.65 0.62 0.71 0.83 0.94 1.04 1.12
0.23 0.23 0.23 0.40 0.43 0.49 0.81 0.88 0.76 0.78 0.75 0.84 0.91 1.05 1.00 0.94 0.93 0.85 0.79 0.77 0.66 0.65 0.73 0.78 0.87 0.91 0.85 0.81 0.79 0.65 0.47 0.38 0.35 0.32 0.26 0.22 0.22 0.23 0.29 0.32 0.33 0.41 0.53 0.55 0.62 0.66 0.69 0.79 0.85